Home   Weather   Tirana   Past weeks

Flag for Albania Past Weather in Tirana, Albania — Yesterday and Last 2 Weeks

Now
77 °F

Scattered clouds.


Feels Like: 79 °F
Forecast: 67 / 99 °F
Wind: 2 mph from North

Location: Tirana Airport

Current Time: Jun 29, 2017 at 7:42:24 am

Latest Report: Jun 29, 2017 at 7:20 am


Visibility: N/A

Pressure: 29.80 "Hg

Humidity: 65%

Dew Point: 64 °F

Location of TiranaLocation

Past Weather in Tirana — Graph

°F

Tirana Temperature Yesterday

Maximum temperature yesterday: 93 °F (at 11:50 am)
Minimum temperature yesterday: 70 °F (at 3:50 am)
Average temperature yesterday: 81 °F

High & Low Weather Summary for the Past Weeks

 TemperatureHumidityPressure
High97 °F (Jun 25, 12:20 pm)94% (Jun 17, 1:50 am)30.09 "Hg (Jun 17, 1:50 am)
Low59 °F (Jun 18, 4:56 am)20% (Jun 19, 3:20 pm)29.77 "Hg (Jun 29, 1:50 am)
Average77 °F57%29.94 "Hg
* Reported Jun 14 6:20 am — Jun 29 6:20 am, Tirana. Weather by CustomWeather, © 2017

Note: Actual official high and low records may vary slightly from our data, if they occured in-between our weather recording intervals... More about our weather records

Advertising

Tirana Weather History for the Previous 24 Hours

Scroll right to see more
 ConditionsComfort  
Time TempWeatherWind HumidityBarometerVisibility
6:20 am
Thu, Jun 29
75 °FPartly sunny.5 mph61%29.77 "HgN/A
5:50 am73 °FScattered clouds.2 mph69%29.77 "HgN/A
5:20 am75 °FScattered clouds.3 mph61%29.77 "HgN/A
4:50 am77 °FPassing clouds.13 mph51%29.80 "HgN/A
4:20 am77 °FPassing clouds.9 mph51%29.77 "HgN/A
3:50 am73 °FPassing clouds.6 mph57%29.77 "HgN/A
3:20 am75 °FClear.7 mph57%29.77 "Hg10 mi
2:50 am72 °FClear.7 mph65%29.77 "Hg10 mi
2:20 am75 °FClear.8 mph61%29.77 "Hg10 mi
1:50 am73 °FPassing clouds.8 mph69%29.77 "HgN/A
1:20 am72 °FClear.8 mph78%29.80 "Hg10 mi
12:50 am73 °FClear.5 mph78%29.80 "Hg10 mi
12:20 am73 °FClear.6 mph78%29.80 "Hg10 mi
11:50 pm
Wed, Jun 28
75 °FClear.6 mph78%29.83 "Hg10 mi
11:20 pm75 °FPassing clouds.3 mph78%29.83 "HgN/A
10:50 pm75 °FPassing clouds.3 mph78%29.86 "HgN/A
10:20 pm75 °FClear.3 mph78%29.86 "Hg10 mi
9:50 pm77 °FClear.2 mph74%29.86 "Hg10 mi
9:20 pm77 °FClear.2 mph79%29.86 "Hg10 mi
8:50 pm77 °FPassing clouds.5 mph74%29.83 "HgN/A
8:20 pm81 °FPassing clouds.3 mph66%29.80 "HgN/A
7:50 pm81 °FScattered clouds.3 mph66%29.80 "HgN/A
7:20 pm84 °FSunny.5 mph58%29.80 "Hg10 mi
6:50 pm86 °FSunny.6 mph55%29.80 "Hg10 mi
6:20 pm90 °FSunny.6 mph33%29.80 "Hg10 mi
5:50 pm91 °FSunny.6 mph36%29.80 "Hg10 mi
5:20 pm90 °FSunny.6 mph36%29.80 "Hg10 mi
4:50 pm91 °FPassing clouds.3 mph36%29.80 "HgN/A
4:20 pm90 °FSunny.3 mph33%29.83 "Hg10 mi
3:50 pm91 °FScattered clouds.6 mph34%29.83 "HgN/A
3:20 pm91 °FScattered clouds.7 mph34%29.83 "HgN/A
2:50 pm90 °FScattered clouds.10 mph36%29.83 "HgN/A
1:20 pm93 °FSunny.13 mph34%29.83 "Hg10 mi
12:50 pm91 °FPassing clouds.12 mph36%29.83 "HgN/A
12:20 pm91 °FPassing clouds.6 mph34%29.83 "HgN/A
11:50 am93 °FSunny.3 mph28%29.83 "Hg10 mi
11:20 am90 °FPassing clouds.6 mph31%29.83 "HgN/A
10:50 am90 °FSunny.5 mph33%29.83 "Hg10 mi
10:20 am90 °FPassing clouds.3 mph33%29.83 "HgN/A
9:50 am90 °FPassing clouds.5 mph36%29.83 "HgN/A
9:20 am88 °FPassing clouds.5 mph35%29.83 "HgN/A
8:50 am84 °FSunny.1 mph40%29.83 "Hg10 mi
8:20 am81 °FSunny.1 mph45%29.86 "Hg10 mi
7:50 am79 °FPassing clouds.3 mph48%29.83 "HgN/A
7:20 am77 °FPassing clouds.5 mph54%29.83 "HgN/A
Weather by CustomWeather, © 2017

See weather overviewHow to use our weather pages